Time,TemperatureF,DewpointF,PressureIn,WindDirection,WindDirectionDegrees,WindSpeedMPH,WindSpeedGustMPH,Humidity,HourlyPrecipIn,Conditions,Clouds,dailyrainin,SolarRadiationWatts/m^2,SoftwareType,DateUTC
2013-05-21 00:12:00,47.0,35.0,-100.00,ESE,116,3.0,8.0,63,0.00,,,0.00,0.000000,,2013-05-21 06:12:00,
2013-05-21 00:21:00,47.0,35.0,-100.00,ESE,116,3.0,8.0,63,0.00,,,0.00,0.000000,,2013-05-21 06:21:00,
2013-05-21 00:32:00,47.0,35.0,-100.00,ESE,116,3.0,8.0,63,0.00,,,0.00,0.000000,,2013-05-21 06:32:00,
2013-05-21 00:41:00,47.0,35.0,-100.00,ESE,116,3.0,8.0,63,0.00,,,0.00,0.000000,,2013-05-21 06:41:00,
2013-05-21 01:11:00,43.0,34.0,-100.00,SSE,154,4.0,6.0,71,0.00,,,0.00,0.000000,,2013-05-21 07:11:00,
2013-05-21 01:21:00,43.0,34.0,-100.00,SSE,154,4.0,6.0,71,0.00,,,0.00,0.000000,,2013-05-21 07:21:00,
2013-05-21 01:31:00,43.0,34.0,-100.00,SSE,154,4.0,6.0,71,0.00,,,0.00,0.000000,,2013-05-21 07:31:00,
2013-05-21 01:41:00,43.0,34.0,-100.00,SSE,154,4.0,6.0,71,0.00,,,0.00,0.000000,,2013-05-21 07:41:00,
2013-05-21 03:11:00,39.0,32.0,-100.00,South,174,4.0,7.0,76,-99.99,,,0.00,0.000000,,2013-05-21 09:11:00,
2013-05-21 04:12:00,40.0,32.0,-100.00,South,183,7.0,8.0,74,0.00,,,0.00,0.000000,,2013-05-21 10:12:00,
2013-05-21 04:22:00,40.0,32.0,-100.00,South,183,7.0,8.0,74,0.00,,,0.00,0.000000,,2013-05-21 10:22:00,
2013-05-21 04:32:00,40.0,32.0,-100.00,South,183,7.0,8.0,74,0.00,,,0.00,0.000000,,2013-05-21 10:32:00,
2013-05-21 04:41:00,40.0,32.0,-100.00,South,183,7.0,8.0,74,0.00,,,0.00,0.000000,,2013-05-21 10:41:00,
2013-05-21 05:11:00,40.0,31.0,-100.00,SE,141,5.0,8.0,71,0.00,,,0.00,0.000000,,2013-05-21 11:11:00,
2013-05-21 05:21:00,40.0,31.0,-100.00,SE,141,5.0,8.0,71,0.00,,,0.00,0.000000,,2013-05-21 11:21:00,
2013-05-21 05:32:00,40.0,31.0,-100.00,SE,141,5.0,8.0,71,0.00,,,0.00,0.000000,,2013-05-21 11:32:00,
2013-05-21 05:41:00,40.0,31.0,-100.00,SE,141,5.0,8.0,71,0.00,,,0.00,0.000000,,2013-05-21 11:41:00,
2013-05-21 06:21:00,40.0,31.0,-100.00,South,176,6.0,9.0,71,0.00,,,0.00,0.000000,,2013-05-21 12:21:00,
2013-05-21 06:31:00,40.0,31.0,-100.00,South,176,6.0,9.0,71,0.00,,,0.00,0.000000,,2013-05-21 12:31:00,
2013-05-21 06:41:00,40.0,31.0,-100.00,South,176,6.0,9.0,71,0.00,,,0.00,0.000000,,2013-05-21 12:41:00,
2013-05-21 07:11:00,44.0,33.0,-100.00,South,172,7.0,10.0,65,0.00,,,-99.99,26.000000,,2013-05-21 13:11:00,
2013-05-21 07:22:00,44.0,33.0,-100.00,South,172,7.0,10.0,65,0.00,,,-99.99,26.000000,,2013-05-21 13:22:00,
2013-05-21 07:31:00,44.0,33.0,-100.00,South,172,7.0,10.0,65,0.00,,,-99.99,26.000000,,2013-05-21 13:31:00,
2013-05-21 07:41:00,44.0,33.0,-100.00,South,172,7.0,10.0,65,0.00,,,-99.99,26.000000,,2013-05-21 13:41:00,
2013-05-21 08:11:00,50.0,34.0,-100.00,ESE,115,5.0,7.0,55,0.00,,,0.00,150.000000,,2013-05-21 14:11:00,
2013-05-21 08:21:00,50.0,34.0,-100.00,ESE,115,5.0,7.0,55,0.00,,,0.00,150.000000,,2013-05-21 14:21:00,
2013-05-21 08:31:00,50.0,34.0,-100.00,ESE,115,5.0,7.0,55,0.00,,,0.00,150.000000,,2013-05-21 14:31:00,
2013-05-21 08:41:00,50.0,34.0,-100.00,ESE,115,5.0,7.0,55,0.00,,,0.00,150.000000,,2013-05-21 14:41:00,
2013-05-21 09:11:00,54.0,34.0,-100.00,ENE,61,7.0,10.0,46,0.00,,,0.00,432.000000,,2013-05-21 15:11:00,
2013-05-21 09:21:00,54.0,34.0,-100.00,ENE,61,7.0,10.0,46,0.00,,,0.00,432.000000,,2013-05-21 15:21:00,
2013-05-21 09:33:00,54.0,34.0,-100.00,ENE,61,7.0,10.0,46,0.00,,,0.00,432.000000,,2013-05-21 15:33:00,
2013-05-21 09:42:00,54.0,34.0,-100.00,ENE,61,7.0,10.0,46,0.00,,,0.00,432.000000,,2013-05-21 15:42:00,
2013-05-21 10:12:00,57.0,33.0,-100.00,NNW,345,4.0,10.0,40,0.00,,,0.00,645.000000,,2013-05-21 16:12:00,
2013-05-21 10:23:00,57.0,33.0,-100.00,NNW,345,4.0,10.0,40,0.00,,,0.00,645.000000,,2013-05-21 16:23:00,
2013-05-21 10:32:00,57.0,33.0,-100.00,NNW,345,4.0,10.0,40,0.00,,,0.00,645.000000,,2013-05-21 16:32:00,
2013-05-21 10:42:00,57.0,33.0,-100.00,NNW,345,4.0,10.0,40,0.00,,,0.00,645.000000,,2013-05-21 16:42:00,
2013-05-21 11:12:00,60.0,34.0,-100.00,NNW,330,6.0,12.0,38,0.00,,,0.00,857.000000,,2013-05-21 17:12:00,
2013-05-21 11:23:00,60.0,34.0,-100.00,NNW,330,6.0,12.0,38,0.00,,,0.00,857.000000,,2013-05-21 17:23:00,
2013-05-21 11:32:00,60.0,34.0,-100.00,NNW,330,6.0,12.0,38,0.00,,,0.00,857.000000,,2013-05-21 17:32:00,
2013-05-21 11:43:00,60.0,34.0,-100.00,NNW,330,6.0,12.0,38,0.00,,,0.00,857.000000,,2013-05-21 17:43:00,
2013-05-21 12:12:00,61.0,35.0,-100.00,NW,314,8.0,17.0,38,0.00,,,0.00,849.000000,,2013-05-21 18:12:00,
2013-05-21 12:22:00,61.0,35.0,-100.00,NW,314,8.0,17.0,38,0.00,,,0.00,849.000000,,2013-05-21 18:22:00,
2013-05-21 12:32:00,61.0,35.0,-100.00,NW,314,8.0,17.0,38,0.00,,,0.00,849.000000,,2013-05-21 18:32:00,
2013-05-21 12:42:00,61.0,35.0,-100.00,NW,314,8.0,17.0,38,0.00,,,0.00,849.000000,,2013-05-21 18:42:00,
2013-05-21 13:11:00,64.0,35.0,-100.00,NW,304,6.0,17.0,34,0.00,,,0.00,1103.000000,,2013-05-21 19:11:00,
2013-05-21 13:21:00,64.0,35.0,-100.00,NW,304,6.0,17.0,34,0.00,,,0.00,1103.000000,,2013-05-21 19:21:00,
2013-05-21 13:31:00,64.0,35.0,-100.00,NW,304,6.0,17.0,34,0.00,,,0.00,1103.000000,,2013-05-21 19:31:00,
2013-05-21 13:41:00,64.0,35.0,-100.00,NW,304,6.0,17.0,34,0.00,,,0.00,1103.000000,,2013-05-21 19:41:00,
2013-05-21 14:11:00,65.0,29.0,-100.00,West,269,7.0,17.0,26,0.00,,,0.00,1017.000000,,2013-05-21 20:11:00,
2013-05-21 14:22:00,65.0,29.0,-100.00,West,269,7.0,17.0,26,0.00,,,0.00,1017.000000,,2013-05-21 20:22:00,
2013-05-21 14:32:00,65.0,29.0,-100.00,West,269,7.0,17.0,26,0.00,,,0.00,1017.000000,,2013-05-21 20:32:00,
2013-05-21 14:42:00,65.0,29.0,-100.00,West,269,7.0,17.0,26,0.00,,,0.00,1017.000000,,2013-05-21 20:42:00,
2013-05-21 15:11:00,66.0,31.0,-100.00,WNW,290,8.0,17.0,27,0.00,,,0.00,1098.000000,,2013-05-21 21:11:00,
2013-05-21 15:21:00,66.0,31.0,-100.00,WNW,290,8.0,17.0,27,0.00,,,0.00,1098.000000,,2013-05-21 21:21:00,
2013-05-21 15:32:00,66.0,31.0,-100.00,WNW,290,8.0,17.0,27,0.00,,,0.00,1098.000000,,2013-05-21 21:32:00,
2013-05-21 15:43:00,66.0,31.0,-100.00,WNW,290,8.0,17.0,27,0.00,,,0.00,1098.000000,,2013-05-21 21:43:00,
2013-05-21 16:12:00,67.0,30.0,-100.00,WSW,244,7.0,18.0,25,0.00,,,0.00,1007.000000,,2013-05-21 22:12:00,
2013-05-21 16:22:00,67.0,30.0,-100.00,WSW,244,7.0,18.0,25,0.00,,,0.00,1007.000000,,2013-05-21 22:22:00,
2013-05-21 16:33:00,67.0,30.0,-100.00,WSW,244,7.0,18.0,25,0.00,,,0.00,1007.000000,,2013-05-21 22:33:00,
2013-05-21 16:41:00,67.0,30.0,-100.00,WSW,244,7.0,18.0,25,0.00,,,0.00,1007.000000,,2013-05-21 22:41:00,
2013-05-21 17:12:00,67.0,27.0,-100.00,West,266,8.0,19.0,22,0.00,,,0.00,824.000000,,2013-05-21 23:12:00,
2013-05-21 17:22:00,67.0,27.0,-100.00,West,266,8.0,19.0,22,0.00,,,0.00,824.000000,,2013-05-21 23:22:00,
2013-05-21 17:32:00,67.0,27.0,-100.00,West,266,8.0,19.0,22,0.00,,,0.00,824.000000,,2013-05-21 23:32:00,
2013-05-21 17:42:00,67.0,27.0,-100.00,West,266,8.0,19.0,22,0.00,,,0.00,824.000000,,2013-05-21 23:42:00,
2013-05-21 18:11:00,67.0,25.0,-100.00,WSW,257,7.0,18.0,20,0.00,,,0.00,618.000000,,2013-05-22 00:11:00,
2013-05-21 18:21:00,67.0,25.0,-100.00,WSW,257,7.0,18.0,20,0.00,,,0.00,618.000000,,2013-05-22 00:21:00,
2013-05-21 18:31:00,67.0,25.0,-100.00,WSW,257,7.0,18.0,20,0.00,,,0.00,618.000000,,2013-05-22 00:31:00,
2013-05-21 18:41:00,67.0,25.0,-100.00,WSW,257,7.0,18.0,20,0.00,,,0.00,618.000000,,2013-05-22 00:41:00,
2013-05-21 19:11:00,64.0,25.0,-100.00,West,271,9.0,18.0,23,0.00,,,0.00,375.000000,,2013-05-22 01:11:00,
2013-05-21 19:21:00,64.0,25.0,-100.00,West,271,9.0,18.0,23,0.00,,,0.00,375.000000,,2013-05-22 01:21:00,
2013-05-21 19:32:00,64.0,25.0,-100.00,West,271,9.0,18.0,23,0.00,,,0.00,375.000000,,2013-05-22 01:32:00,
2013-05-21 19:41:00,64.0,25.0,-100.00,West,271,9.0,18.0,23,0.00,,,0.00,375.000000,,2013-05-22 01:41:00,
2013-05-21 20:11:00,60.0,26.0,-100.00,SW,229,6.0,16.0,27,0.00,,,0.00,176.000000,,2013-05-22 02:11:00,
2013-05-21 20:21:00,60.0,26.0,-100.00,SW,229,6.0,16.0,27,0.00,,,0.00,176.000000,,2013-05-22 02:21:00,
2013-05-21 20:32:00,60.0,26.0,-100.00,SW,229,6.0,16.0,27,0.00,,,0.00,176.000000,,2013-05-22 02:32:00,
2013-05-21 20:41:00,60.0,26.0,-100.00,SW,229,6.0,16.0,27,0.00,,,0.00,176.000000,,2013-05-22 02:41:00,
2013-05-21 21:11:00,58.0,26.0,-100.00,SSW,205,8.0,11.0,29,0.00,,,0.00,21.000000,,2013-05-22 03:11:00,
2013-05-21 21:21:00,58.0,26.0,-100.00,SSW,205,8.0,11.0,29,0.00,,,0.00,21.000000,,2013-05-22 03:21:00,
2013-05-21 21:33:00,58.0,26.0,-100.00,SSW,205,8.0,11.0,29,0.00,,,0.00,21.000000,,2013-05-22 03:33:00,
2013-05-21 21:43:00,58.0,26.0,-100.00,SSW,205,8.0,11.0,29,0.00,,,0.00,21.000000,,2013-05-22 03:43:00,
2013-05-21 22:13:00,56.0,25.0,-100.00,South,186,7.0,11.0,30,0.00,,,0.00,0.000000,,2013-05-22 04:13:00,
2013-05-21 22:22:00,56.0,25.0,-100.00,South,186,7.0,11.0,30,0.00,,,0.00,0.000000,,2013-05-22 04:22:00,
2013-05-21 22:33:00,56.0,25.0,-100.00,South,186,7.0,11.0,30,0.00,,,0.00,0.000000,,2013-05-22 04:33:00,
2013-05-21 22:42:00,56.0,25.0,-100.00,South,186,7.0,11.0,30,0.00,,,0.00,0.000000,,2013-05-22 04:42:00,
2013-05-21 23:11:00,55.0,23.0,-100.00,South,189,7.0,10.0,29,0.00,,,0.00,0.000000,,2013-05-22 05:11:00,
2013-05-21 23:21:00,55.0,23.0,-100.00,South,189,7.0,10.0,29,0.00,,,0.00,0.000000,,2013-05-22 05:21:00,
2013-05-21 23:31:00,55.0,23.0,-100.00,South,189,7.0,10.0,29,0.00,,,0.00,0.000000,,2013-05-22 05:31:00,
2013-05-21 23:42:00,55.0,23.0,-100.00,South,189,7.0,10.0,29,0.00,,,0.00,0.000000,,2013-05-22 05:42:00,